Location: *
(49.9853°N, 3.5569°E)
Time: 09:17:33
(UTC+00:00)

Cosmos 2082 - Pass Details

Date: 22 September 2019
Orbit: 834 x 855 km, 71.0° (Epoch: 19 October)

Event Time Altitude Azimuth Distance (km) Brightness Sun altitude
Rises 19:31:00 0° 195° (SSW) 3,412 6.8 -17.5°
Reaches altitude 10° 19:33:28 10° 191° (SSW) 2,481 6.0 -17.9°
Maximum altitude 19:39:05 61° 113° (ESE) 968 3.7 -18.7°
Drops below altitude 10° 19:44:42 10° 34° (NE) 2,493 6.0 -19.5°
Sets 19:47:11 0° 32° (NNE) 3,431 6.8 -19.9°
